• In Belarus
  • List of Countries
  • For 7 days
  • Water Temperature
  • Satellite Maps
  • Weather Map
  • Weather Widgets
  • user-avatar
    Login

    Hourly Weather Melbourne

    Today, 25 September, Monday

    Time Temperature Precipitation Wind Pressure Humidity
    00:00 +11°C° 0 mm 6 mps 750 mmHg 73%
    01:00 +12°C° 0 mm 5 mps 751 mmHg 75%
    02:00 +12°C° 0.1 mm 5 mps 751 mmHg 78%
    03:00 +11°C° 0.1 mm 4 mps 751 mmHg 81%
    04:00 +10°C° 0 mm 5 mps 752 mmHg 84%
    05:00 +10°C° 0.3 mm 4 mps 752 mmHg 87%
    06:00 +10°C° 0.3 mm 4 mps 753 mmHg 89%
    07:00 +10°C° 0.3 mm 4 mps 753 mmHg 91%
    08:00 +11°C° 0.4 mm 4 mps 754 mmHg 89%
    09:00 +12°C° 0.4 mm 4 mps 754 mmHg 88%
    10:00 +12°C° 0.4 mm 4 mps 755 mmHg 86%
    11:00 +13°C° 0.4 mm 4 mps 755 mmHg 83%
    12:00 +13°C° 0.4 mm 4 mps 755 mmHg 81%
    13:00 +13°C° 0.4 mm 4 mps 755 mmHg 79%
    14:00 +13°C° 0.3 mm 4 mps 756 mmHg 78%
    15:00 +13°C° 0.3 mm 4 mps 756 mmHg 76%
    16:00 +13°C° 0.3 mm 4 mps 756 mmHg 75%
    17:00 +12°C° 0.1 mm 4 mps 757 mmHg 76%
    18:00 +10°C° 0.1 mm 3 mps 757 mmHg 77%
    19:00 +9°C° 0.1 mm 2 mps 758 mmHg 78%
    20:00 +8°C° 0 mm 2 mps 759 mmHg 80%
    21:00 +8°C° 0 mm 2 mps 759 mmHg 82%
    22:00 +7°C° 0 mm 2 mps 760 mmHg 84%
    23:00 +6°C° 0 mm 2 mps 760 mmHg 85%

    Tomorrow, 26 September, Tuesday

    Time Temperature Precipitation Wind Pressure Humidity
    00:00 +6°C° 0 mm 2 mps 760 mmHg 86%
    01:00 +5°C° 0 mm 2 mps 761 mmHg 88%
    02:00 +5°C° 0 mm 2 mps 761 mmHg 88%
    03:00 +5°C° 0 mm 2 mps 761 mmHg 89%
    04:00 +5°C° 0 mm 2 mps 761 mmHg 90%
    05:00 +5°C° 0 mm 2 mps 761 mmHg 89%
    06:00 +6°C° 0 mm 1 mps 761 mmHg 87%
    07:00 +7°C° 0 mm 1 mps 762 mmHg 85%
    08:00 +10°C° 0 mm 1 mps 762 mmHg 75%
    09:00 +12°C° 0 mm 1 mps 762 mmHg 64%
    10:00 +14°C° 0 mm 0 mps 762 mmHg 53%
    11:00 +16°C° 0 mm 1 mps 761 mmHg 49%
    12:00 +18°C° 0 mm 1 mps 761 mmHg 45%
    13:00 +19°C° 0 mm 1 mps 761 mmHg 41%
    14:00 +19°C° 0 mm 1 mps 760 mmHg 42%
    15:00 +18°C° 0 mm 2 mps 760 mmHg 44%
    16:00 +18°C° 0 mm 2 mps 760 mmHg 45%
    17:00 +16°C° 0 mm 2 mps 760 mmHg 54%
    18:00 +14°C° 0 mm 2 mps 760 mmHg 62%
    19:00 +12°C° 0 mm 2 mps 760 mmHg 71%
    20:00 +10°C° 0 mm 2 mps 760 mmHg 74%
    21:00 +9°C° 0 mm 2 mps 760 mmHg 77%
    22:00 +9°C° 0 mm 2 mps 761 mmHg 79%
    23:00 +9°C° 0 mm 2 mps 760 mmHg 78%

    Day after tomorrow, 27 September, Wednesday

    Time Temperature Precipitation Wind Pressure Humidity
    00:00 +9°C° 0 mm 2 mps 759 mmHg 77%
    01:00 +8°C° 0 mm 2 mps 759 mmHg 76%
    02:00 +9°C° 0 mm 3 mps 758 mmHg 70%
    03:00 +10°C° 0 mm 3 mps 757 mmHg 64%
    04:00 +11°C° 0 mm 4 mps 756 mmHg 58%
    05:00 +11°C° 0 mm 4 mps 755 mmHg 57%
    06:00 +12°C° 0 mm 4 mps 755 mmHg 56%
    07:00 +12°C° 0 mm 4 mps 755 mmHg 55%
    08:00 +14°C° 0 mm 5 mps 754 mmHg 53%
    09:00 +15°C° 0 mm 6 mps 754 mmHg 51%
    10:00 +17°C° 0 mm 8 mps 754 mmHg 48%
    11:00 +17°C° 0 mm 7 mps 753 mmHg 49%
    12:00 +18°C° 0 mm 7 mps 752 mmHg 50%
    13:00 +20°C° 0 mm 7 mps 751 mmHg 51%
    14:00 +20°C° 0 mm 6 mps 750 mmHg 54%
    15:00 +20°C° 0 mm 6 mps 750 mmHg 57%
    16:00 +21°C° 0 mm 5 mps 749 mmHg 59%
    17:00 +19°C° 1 mm 5 mps 749 mmHg 69%
    18:00 +16°C° 1 mm 5 mps 749 mmHg 79%
    19:00 +15°C° 1 mm 4 mps 749 mmHg 89%
    20:00 +14°C° 0.7 mm 4 mps 750 mmHg 88%
    21:00 +14°C° 0.7 mm 4 mps 750 mmHg 87%
    22:00 +13°C° 0.7 mm 4 mps 751 mmHg 87%
    23:00 +13°C° 0 mm 4 mps 751 mmHg 85%

    28 September, Thursday

    Time Temperature Precipitation Wind Pressure Humidity
    00:00 +12°C° 0 mm 4 mps 751 mmHg 84%
    01:00 +11°C° 0 mm 4 mps 751 mmHg 83%
    02:00 +11°C° 0 mm 4 mps 751 mmHg 84%
    03:00 +11°C° 0 mm 4 mps 751 mmHg 85%
    04:00 +10°C° 0 mm 4 mps 751 mmHg 86%
    05:00 +11°C° 0 mm 4 mps 752 mmHg 86%
    06:00 +11°C° 0 mm 3 mps 753 mmHg 87%
    07:00 +11°C° 0 mm 3 mps 754 mmHg 87%
    08:00 +12°C° 0.1 mm 3 mps 755 mmHg 85%
    09:00 +12°C° 0.1 mm 4 mps 755 mmHg 83%
    10:00 +13°C° 0.1 mm 4 mps 756 mmHg 80%
    11:00 +13°C° 0.1 mm 4 mps 756 mmHg 75%
    12:00 +14°C° 0.1 mm 4 mps 756 mmHg 71%
    13:00 +14°C° 0.1 mm 4 mps 756 mmHg 66%
    14:00 +14°C° 0.1 mm 4 mps 756 mmHg 68%
    15:00 +14°C° 0.1 mm 3 mps 756 mmHg 70%
    16:00 +14°C° 0.1 mm 3 mps 756 mmHg 72%
    17:00 +13°C° 0.1 mm 3 mps 756 mmHg 77%
    18:00 +12°C° 0.1 mm 3 mps 757 mmHg 82%
    19:00 +11°C° 0.1 mm 3 mps 757 mmHg 87%
    20:00 +10°C° 0 mm 3 mps 758 mmHg 87%
    21:00 +10°C° 0 mm 3 mps 758 mmHg 87%
    22:00 +8°C° 0 mm 4 mps 759 mmHg 87%
    23:00 +7°C° 0 mm 4 mps 759 mmHg 86%

    29 September, Friday

    Time Temperature Precipitation Wind Pressure Humidity
    00:00 +7°C° 0 mm 4 mps 758 mmHg 86%
    01:00 +6°C° 0 mm 4 mps 758 mmHg 86%
    02:00 +6°C° 0 mm 4 mps 758 mmHg 87%
    03:00 +6°C° 0 mm 4 mps 758 mmHg 88%
    04:00 +6°C° 0 mm 4 mps 758 mmHg 88%
    05:00 +6°C° 0 mm 4 mps 759 mmHg 88%
    06:00 +7°C° 0 mm 4 mps 759 mmHg 87%
    07:00 +7°C° 0 mm 4 mps 759 mmHg 87%
    08:00 +10°C° 0 mm 4 mps 759 mmHg 79%
    09:00 +10°C° 0 mm 5 mps 759 mmHg 72%
    10:00 +13°C° 0 mm 5 mps 759 mmHg 64%
    11:00 +14°C° 0.1 mm 5 mps 759 mmHg 62%
    12:00 +14°C° 0.1 mm 6 mps 758 mmHg 60%
    13:00 +15°C° 0.1 mm 6 mps 758 mmHg 58%
    14:00 +15°C° 0.3 mm 6 mps 757 mmHg 61%
    15:00 +15°C° 0.3 mm 6 mps 757 mmHg 64%
    16:00 +15°C° 0.3 mm 6 mps 756 mmHg 67%
    17:00 +13°C° 0.3 mm 6 mps 756 mmHg 70%
    18:00 +11°C° 0.3 mm 6 mps 757 mmHg 74%
    19:00 +10°C° 0.3 mm 5 mps 757 mmHg 77%
    20:00 +10°C° 0.1 mm 6 mps 757 mmHg 76%
    21:00 +10°C° 0.1 mm 6 mps 757 mmHg 76%
    22:00 +9°C° 0.1 mm 6 mps 758 mmHg 75%
    23:00 +9°C° 0 mm 7 mps 758 mmHg 74%

    30 September, Saturday

    Time Temperature Precipitation Wind Pressure Humidity
    00:00 +9°C° 0 mm 7 mps 758 mmHg 73%
    01:00 +9°C° 0 mm 7 mps 758 mmHg 72%
    02:00 +8°C° 0.1 mm 7 mps 758 mmHg 74%
    03:00 +8°C° 0.1 mm 7 mps 759 mmHg 76%
    04:00 +8°C° 0.1 mm 6 mps 760 mmHg 78%
    05:00 +8°C° 0.1 mm 6 mps 760 mmHg 76%
    06:00 +8°C° 0.1 mm 5 mps 761 mmHg 75%
    07:00 +7°C° 0.1 mm 4 mps 762 mmHg 74%
    08:00 +10°C° 0 mm 4 mps 763 mmHg 66%
    09:00 +11°C° 0 mm 4 mps 763 mmHg 59%
    10:00 +12°C° 0 mm 4 mps 764 mmHg 51%
    11:00 +13°C° 0 mm 4 mps 764 mmHg 51%
    12:00 +13°C° 0 mm 4 mps 764 mmHg 52%
    13:00 +14°C° 0 mm 5 mps 764 mmHg 52%
    14:00 +14°C° 0.1 mm 5 mps 764 mmHg 53%
    15:00 +14°C° 0.1 mm 5 mps 764 mmHg 53%
    16:00 +14°C° 0.1 mm 5 mps 764 mmHg 53%
    17:00 +13°C° 0 mm 5 mps 765 mmHg 58%
    18:00 +11°C° 0 mm 4 mps 765 mmHg 62%
    19:00 +10°C° 0 mm 3 mps 766 mmHg 67%
    20:00 +9°C° 0 mm 3 mps 766 mmHg 72%
    21:00 +9°C° 0 mm 3 mps 767 mmHg 77%
    22:00 +8°C° 0 mm 3 mps 767 mmHg 81%
    23:00 +8°C° 0 mm 3 mps 767 mmHg 83%
    Show more